Regional Weather Roundup
Issued by NWS

Home | Current Version | Previous Version | Graphics & Text | Print | Product List | Glossary On
Versions: 1 2 3 4 5 6 7 8 9 10 11 12 13 14 15 16 17 18 19 20 21 22 23 24 25 26 27 28 29 30 31 32 33 34 35 36 37 38 39 40 41 42 43 44 45 46 47 48 49 50
000
ASUS43 KLMK 181510
RWRKY
KENTUCKY REGIONAL WEATHER ROUNDUP
NATIONAL WEATHER SERVICE LOUISVILLE KY
1000 AM EST MON DEC 18 2017

NOTE "FAIR" INDICATES FEW OR NO CLOUDS BELOW 12,000 FEET
WITH NO SIGNIFICANT WEATHER AND/OR OBSTRUCTIONS TO VISIBILITY.

KYZ001>023-026-027-061>063-070>075-181600-
WESTERN AND SOUTH CENTRAL KENTUCKY

CITY           SKY/WX    TMP DP  RH WIND       PRES   REMARKS
PADUCAH        CLOUDY    46  43  89 SW7       30.14R
HENDERSON      CLOUDY    45  44  97 SW7       30.15R
OWENSBORO      LGT RAIN  45  44  97 SW10      30.14S FOG
HOPKINSVILLE   NOT AVBL
BOWLING GREEN  CLOUDY    48  47  96 SW6       30.16S FOG
GLASGOW        CLOUDY   N/A N/A N/A SW5       30.15S
$$

KYZ024-025-028>034-038-045-046-053-181600-
NORTH CENTRAL KENTUCKY

CITY           SKY/WX    TMP DP  RH WIND       PRES   REMARKS
LOUISVILLE/SDF CLOUDY    47  43  86 SW8       30.13R
LOUISVILLE/LOU CLOUDY    47  44  90 SW7       30.13S
FORT KNOX      DRIZZLE   45  43  93 S8        30.11F FOG
$$

KYZ035>037-039>044-047>052-055>060-089>105-181600-
NORTHEAST KENTUCKY

CITY           SKY/WX    TMP DP  RH WIND       PRES   REMARKS
LEXINGTON      CLOUDY    45  43  93 S8        30.13S
COVINGTON      FOG       43  43 100 SW8       30.10R VSB 1
FRANKFORT      CLOUDY    46  42  86 SW12      30.11S
$$

KYZ054-064>069-076>088-106>120-181600-
SOUTHEAST KENTUCKY

CITY           SKY/WX    TMP DP  RH WIND       PRES   REMARKS
JACKSON        CLOUDY    45  44  97 VRB3      30.15R FOG
LONDON         CLOUDY    46  45  96 SW3       30.15S FOG
SOMERSET       CLOUDY    45  45 100 CALM      30.18R FOG
MIDDLESBORO    CLOUDY    43  43  99 CALM      30.18S
MONTICELLO     LGT RAIN  48  47  96 W14       30.18R FOG
$$





USA.gov is the U.S. government's official web portal to all federal, state and local government web resources and services.